Tracking 28790 objects as of 19-Apr-2024
HD Live streaming from Space Station
objects crossing your sky now

STARLINK-2215

Track STARLINK-2215 now!
10-day predictions
STARLINK-2215 is classified as:


NORAD ID: 48567
Int'l Code: 2021-041Q
Perigee: 366.0 km
Apogee: 367.7 km
Inclination: 53.1 °
Period: 91.7 minutes
Semi major axis: 6737 km
RCS: Unknown
Launch date: May 15, 2021
Source: United States (US)
Launch site: AIR FORCE EASTERN TEST RANGE (AFETR)
Your satellite tracking list
Your tracking list is empty




NASA's NSSDC Master Catalog

Two Line Element Set (TLE):
1 48567U 21041Q   24109.91993261  .00050651  00000-0  42021-3 0  9993
2 48567  53.0534 344.6412 0001214  77.2504 282.8648 15.69717173161282
Source of the keplerian elements: AFSPC